PHKFE EHRD-EHRD

Flight info

Callsign PHKFE
Flight time 0h 13m
Altitude 1000
Route VFR EHRD STAY01/0030
Aircraft DA42/L-SBDGRY/S

Departure

Time 2026-05-07 18:09
Airport Rotterdam The Hague Airport (EHRD)

Arrival

Time 2026-05-07 18:22
Airport Rotterdam The Hague Airport (EHRD)
Time Latitude Longitude Altitude Speed Heading
2026-05-07 17:59 51.94831 4.43815 -12 ft 0 kts 328°
2026-05-07 18:01 51.94831 4.43816 -12 ft 0 kts 328°
2026-05-07 18:04 51.94843 4.43818 -12 ft 7 kts 17°
2026-05-07 18:05 51.94890 4.43863 -12 ft 8 kts 15°
2026-05-07 18:05 51.94943 4.43828 -12 ft 12 kts 330°
2026-05-07 18:05 51.94967 4.43725 -12 ft 11 kts 324°
2026-05-07 18:05 51.95036 4.43652 -12 ft 12 kts 327°
2026-05-07 18:06 51.95113 4.43575 -11 ft 13 kts 329°
2026-05-07 18:06 51.95190 4.43491 -11 ft 13 kts 327°
2026-05-07 18:06 51.95238 4.43392 -11 ft 12 kts 242°
2026-05-07 18:06 51.95190 4.43275 -11 ft 13 kts 237°
2026-05-07 18:07 51.95150 4.43146 -11 ft 13 kts 273°
2026-05-07 18:07 51.95228 4.43098 -11 ft 14 kts
2026-05-07 18:07 51.95312 4.43121 -10 ft 11 kts 20°
2026-05-07 18:07 51.95340 4.43158 -10 ft 0 kts 58°
2026-05-07 18:08 51.95444 4.43417 -10 ft 59 kts 57°
2026-05-07 18:08 51.95747 4.44160 69 ft 90 kts 51°
2026-05-07 18:08 51.96116 4.45019 391 ft 93 kts 51°
2026-05-07 18:09 51.96645 4.45179 641 ft 105 kts 319°
2026-05-07 18:09 51.96557 4.43935 523 ft 126 kts 236°
2026-05-07 18:09 51.96033 4.42832 576 ft 122 kts 233°
2026-05-07 18:09 51.95530 4.41782 597 ft 116 kts 233°
2026-05-07 18:10 51.95003 4.40781 576 ft 115 kts 231°
2026-05-07 18:10 51.94488 4.39833 550 ft 108 kts 233°
2026-05-07 18:10 51.93866 4.39442 550 ft 101 kts 154°
2026-05-07 18:10 51.93780 4.40312 444 ft 95 kts 34°
2026-05-07 18:11 51.94289 4.40824 357 ft 75 kts 34°
2026-05-07 18:11 51.94544 4.41224 272 ft 77 kts 45°
2026-05-07 18:11 51.94964 4.42218 159 ft 83 kts 53°
2026-05-07 18:11 51.95271 4.42982 45 ft 78 kts 53°
2026-05-07 18:12 51.95538 4.43635 -10 ft 55 kts 56°
2026-05-07 18:12 51.95819 4.44318 68 ft 83 kts 44°
2026-05-07 18:12 51.96306 4.44313 370 ft 91 kts 305°
2026-05-07 18:12 51.96180 4.43194 469 ft 116 kts 242°
2026-05-07 18:13 51.95734 4.42106 574 ft 120 kts 236°
2026-05-07 18:13 51.95536 4.40902 630 ft 109 kts 289°
2026-05-07 18:13 51.96058 4.40283 601 ft 99 kts 11°
2026-05-07 18:13 51.96252 4.41177 578 ft 107 kts 129°
2026-05-07 18:14 51.95660 4.40907 515 ft 106 kts 258°
2026-05-07 18:14 51.95990 4.40067 470 ft 96 kts 353°
2026-05-07 18:14 51.96431 4.40710 473 ft 98 kts 92°
2026-05-07 18:14 51.95936 4.41338 436 ft 104 kts 191°
2026-05-07 18:15 51.95394 4.40582 358 ft 108 kts 232°
2026-05-07 18:15 51.94913 4.39680 424 ft 102 kts 232°
2026-05-07 18:15 51.94346 4.39051 494 ft 101 kts 176°
2026-05-07 18:15 51.93987 4.39839 440 ft 100 kts 72°
2026-05-07 18:16 51.94345 4.40759 353 ft 85 kts 49°
2026-05-07 18:16 51.94656 4.41470 248 ft 77 kts 51°
2026-05-07 18:16 51.94962 4.42213 163 ft 81 kts 52°
2026-05-07 18:16 51.95269 4.42979 41 ft 78 kts 54°
2026-05-07 18:17 51.95550 4.43679 -9 ft 68 kts 52°
2026-05-07 18:17 51.95783 4.44259 -10 ft 76 kts 58°
2026-05-07 18:17 51.96176 4.44890 249 ft 81 kts
2026-05-07 18:17 51.96601 4.44322 516 ft 95 kts 274°
2026-05-07 18:18 51.96333 4.43224 659 ft 107 kts 273°
2026-05-07 18:18 51.96840 4.42686 542 ft 112 kts 32°
2026-05-07 18:18 51.96939 4.43782 625 ft 116 kts 127°
2026-05-07 18:18 51.96231 4.43715 644 ft 120 kts 236°
2026-05-07 18:19 51.95763 4.42581 543 ft 121 kts 238°
2026-05-07 18:19 51.95312 4.41467 480 ft 116 kts 240°
2026-05-07 18:19 51.95373 4.40380 510 ft 99 kts 322°
2026-05-07 18:19 51.95944 4.40381 454 ft 90 kts 43°
2026-05-07 18:20 51.96052 4.41000 438 ft 91 kts 102°
2026-05-07 18:20 51.95494 4.41440 343 ft 106 kts 201°
2026-05-07 18:20 51.94825 4.40382 466 ft 100 kts 234°
2026-05-07 18:20 51.94254 4.39932 517 ft 95 kts 153°
2026-05-07 18:21 51.94247 4.40755 415 ft 82 kts 41°
2026-05-07 18:21 51.94628 4.41438 297 ft 81 kts 49°
2026-05-07 18:21 51.94947 4.42179 208 ft 80 kts 53°
2026-05-07 18:21 51.95236 4.42903 44 ft 74 kts 52°
2026-05-07 18:22 51.95418 4.43354 -5 ft 69 kts 51°
2026-05-07 18:22 51.95572 4.43721 -10 ft 49 kts 56°
2026-05-07 18:22 51.95911 4.44559 108 ft 81 kts 50°
2026-05-07 18:22 51.96498 4.44410 405 ft 100 kts 281°
2026-05-07 18:23 51.96182 4.43280 475 ft 124 kts 235°
2026-05-07 18:23 51.95632 4.42124 536 ft 133 kts 232°
2026-05-07 18:23 51.95045 4.40944 594 ft 134 kts 232°
2026-05-07 18:23 51.94321 4.40319 683 ft 114 kts 159°
2026-05-07 18:24 51.94099 4.40942 557 ft 102 kts 68°
2026-05-07 18:24 51.94572 4.41577 377 ft 76 kts 36°
2026-05-07 18:24 51.94945 4.42218 199 ft 83 kts 46°
2026-05-07 18:24 51.95272 4.43000 41 ft 82 kts 52°
2026-05-07 18:25 51.95550 4.43673 -10 ft 56 kts 54°
2026-05-07 18:25 51.95798 4.44291 9 ft 84 kts 51°
2026-05-07 18:25 51.96192 4.44982 268 ft 85 kts 19°
2026-05-07 18:25 51.96645 4.44439 286 ft 112 kts 270°
2026-05-07 18:26 51.96214 4.43366 542 ft 112 kts 230°
2026-05-07 18:26 51.95765 4.42403 483 ft 109 kts 240°
2026-05-07 18:26 51.95347 4.41399 496 ft 109 kts 236°
2026-05-07 18:26 51.94733 4.41244 541 ft 99 kts 124°
2026-05-07 18:27 51.94886 4.42101 303 ft 79 kts 49°
2026-05-07 18:27 51.95197 4.42823 51 ft 75 kts 53°
2026-05-07 18:27 51.95461 4.43473 -10 ft 62 kts 51°
2026-05-07 18:27 51.95699 4.44052 -10 ft 81 kts 54°
2026-05-07 18:28 51.96087 4.44756 284 ft 83 kts 16°
2026-05-07 18:28 51.96571 4.44401 481 ft 96 kts 284°
2026-05-07 18:28 51.96250 4.43368 507 ft 112 kts 235°
2026-05-07 18:28 51.95780 4.42358 562 ft 109 kts 236°
2026-05-07 18:29 51.95240 4.41928 491 ft 89 kts 144°
2026-05-07 18:29 51.95188 4.42753 129 ft 77 kts 57°
2026-05-07 18:29 51.95432 4.43387 -10 ft 50 kts 57°
2026-05-07 18:29 51.95485 4.43578 -10 ft 8 kts 142°
2026-05-07 18:30 51.95430 4.43540 -10 ft 9 kts 208°
2026-05-07 18:30 51.95376 4.43488 -11 ft 11 kts 207°
2026-05-07 18:30 51.95320 4.43426 -11 ft 0 kts 214°
2026-05-07 18:31 51.95321 4.43426 -11 ft 0 kts 214°
2026-05-07 18:38 51.95321 4.43427 -11 ft 0 kts 214°
2026-05-07 18:41 51.95275 4.43414 -11 ft 7 kts 152°
2026-05-07 18:42 51.95226 4.43356 -11 ft 17 kts 238°
2026-05-07 18:42 51.95158 4.43192 -11 ft 18 kts 244°
2026-05-07 18:42 51.95218 4.43100 -11 ft 15 kts
2026-05-07 18:42 51.95321 4.43132 -10 ft 17 kts 33°
2026-05-07 18:43 51.95494 4.43541 -10 ft 73 kts 57°
2026-05-07 18:43 51.95819 4.44292 265 ft 82 kts 51°
2026-05-07 18:43 51.96265 4.44827 477 ft 92 kts 348°
2026-05-07 18:43 51.96402 4.43826 495 ft 119 kts 243°
2026-05-07 18:44 51.96132 4.42591 617 ft 115 kts 283°
2026-05-07 18:44 51.96616 4.41717 640 ft 106 kts 352°
2026-05-07 18:44 51.97178 4.42277 597 ft 105 kts 77°
2026-05-07 18:44 51.96781 4.43180 538 ft 112 kts 170°
2026-05-07 18:45 51.96190 4.42540 427 ft 112 kts 256°
2026-05-07 18:45 51.96340 4.41416 417 ft 100 kts 314°
2026-05-07 18:45 51.96927 4.41033 476 ft 89 kts
2026-05-07 18:45 51.97341 4.41681 457 ft 90 kts 79°
2026-05-07 18:46 51.97030 4.42486 413 ft 97 kts 155°
2026-05-07 18:46 51.96402 4.42326 393 ft 95 kts 224°
2026-05-07 18:46 51.95967 4.41509 394 ft 98 kts 237°
2026-05-07 18:46 51.95567 4.40635 497 ft 94 kts 235°
2026-05-07 18:47 51.95137 4.39778 513 ft 98 kts 233°
2026-05-07 18:47 51.94719 4.38907 536 ft 98 kts 237°
2026-05-07 18:47 51.94178 4.38378 524 ft 92 kts 166°
2026-05-07 18:47 51.93874 4.39149 444 ft 88 kts 80°
2026-05-07 18:48 51.94082 4.39975 414 ft 77 kts 56°
2026-05-07 18:48 51.94355 4.40708 351 ft 76 kts 51°
2026-05-07 18:48 51.94651 4.41417 310 ft 76 kts 51°
2026-05-07 18:48 51.94943 4.42151 219 ft 77 kts 54°
2026-05-07 18:49 51.95219 4.42849 29 ft 70 kts 54°
2026-05-07 18:49 51.95466 4.43469 -10 ft 59 kts 57°
2026-05-07 18:49 51.95738 4.44144 60 ft 83 kts 53°
2026-05-07 18:49 51.96102 4.44839 385 ft 81 kts 20°
2026-05-07 18:50 51.96659 4.44533 517 ft 102 kts 307°
2026-05-07 18:50 51.96528 4.43340 526 ft 124 kts 237°
2026-05-07 18:50 51.96020 4.42200 583 ft 124 kts 234°
2026-05-07 18:50 51.95555 4.41143 603 ft 105 kts 238°
2026-05-07 18:51 51.95144 4.40195 562 ft 101 kts 237°
2026-05-07 18:51 51.94651 4.39526 591 ft 84 kts 186°
2026-05-07 18:51 51.94228 4.40079 541 ft 87 kts 95°
2026-05-07 18:51 51.94448 4.40931 405 ft 81 kts 49°
2026-05-07 18:52 51.94745 4.41666 285 ft 76 kts 50°
2026-05-07 18:52 51.95026 4.42386 122 ft 75 kts 52°
2026-05-07 18:52 51.95322 4.43102 104 ft 78 kts 52°
2026-05-07 18:52 51.95600 4.43852 283 ft 85 kts 55°
2026-05-07 18:53 51.95988 4.44572 507 ft 86 kts 12°
2026-05-07 18:53 51.96466 4.44018 599 ft 109 kts 274°
2026-05-07 18:53 51.96080 4.42800 496 ft 128 kts 237°
2026-05-07 18:53 51.95551 4.41626 476 ft 130 kts 234°
2026-05-07 18:54 51.94989 4.40518 553 ft 126 kts 232°
2026-05-07 18:54 51.94437 4.39459 603 ft 119 kts 237°
2026-05-07 18:54 51.94036 4.38356 705 ft 109 kts 223°
2026-05-07 18:54 51.93446 4.38482 618 ft 99 kts 97°
2026-05-07 18:55 51.93771 4.39433 469 ft 100 kts 46°
2026-05-07 18:55 51.94197 4.40266 412 ft 95 kts 51°
2026-05-07 18:55 51.94540 4.41173 247 ft 92 kts 54°
2026-05-07 18:55 51.94880 4.42029 114 ft 90 kts 54°
2026-05-07 18:56 51.95219 4.42855 43 ft 87 kts 53°
2026-05-07 18:56 51.95555 4.43693 169 ft 88 kts 54°
2026-05-07 18:56 51.95986 4.44343 419 ft 89 kts 10°
2026-05-07 18:56 51.96498 4.43865 478 ft 101 kts 280°
2026-05-07 18:57 51.96166 4.42748 357 ft 119 kts 236°
2026-05-07 18:57 51.95697 4.41673 402 ft 114 kts 234°
2026-05-07 18:57 51.95253 4.40651 523 ft 106 kts 252°
2026-05-07 18:57 51.95284 4.39495 587 ft 101 kts 294°
2026-05-07 18:58 51.95632 4.38717 632 ft 79 kts 327°
2026-05-07 18:58 51.96119 4.38465 561 ft 73 kts
2026-05-07 18:58 51.96609 4.38661 486 ft 73 kts 25°
2026-05-07 18:58 51.96937 4.39256 482 ft 72 kts 53°
2026-05-07 18:59 51.97067 4.40026 490 ft 78 kts 93°
2026-05-07 18:59 51.96758 4.40746 583 ft 86 kts 147°
2026-05-07 18:59 51.96137 4.40620 585 ft 95 kts 212°
2026-05-07 18:59 51.95642 4.39961 695 ft 94 kts 225°
2026-05-07 19:00 51.95188 4.39202 755 ft 94 kts 215°
2026-05-07 19:00 51.94566 4.39265 572 ft 97 kts 145°
2026-05-07 19:00 51.94228 4.40083 438 ft 88 kts 85°
2026-05-07 19:00 51.94447 4.40963 320 ft 84 kts 64°
2026-05-07 19:01 51.94777 4.41745 194 ft 85 kts 53°
2026-05-07 19:01 51.95094 4.42547 72 ft 83 kts 53°
2026-05-07 19:01 51.95399 4.43301 -4 ft 75 kts 52°
2026-05-07 19:01 51.95630 4.43870 -10 ft 44 kts 54°
2026-05-07 19:02 51.95688 4.43979 -10 ft 10 kts 256°
2026-05-07 19:02 51.95627 4.43885 -10 ft 17 kts 240°
2026-05-07 19:02 51.95555 4.43718 -10 ft 18 kts 231°
2026-05-07 19:02 51.95457 4.43580 -10 ft 20 kts 215°
2026-05-07 19:03 51.95350 4.43456 -11 ft 18 kts 212°
2026-05-07 19:03 51.95267 4.43456 -11 ft 13 kts 91°
2026-05-07 19:03 51.95205 4.43550 -11 ft 15 kts 144°
2026-05-07 19:03 51.95118 4.43642 -11 ft 15 kts 145°
2026-05-07 19:04 51.95027 4.43739 -12 ft 16 kts 147°
2026-05-07 19:04 51.94936 4.43834 -12 ft 15 kts 143°
2026-05-07 19:04 51.94872 4.43830 -12 ft 7 kts 239°
2026-05-07 19:04 51.94846 4.43750 -12 ft 9 kts 264°
2026-05-07 19:05 51.94833 4.43743 -12 ft 7 kts 114°
2026-05-07 19:05 51.94827 4.43805 -12 ft 1 kts 329°